Header for Extended Forecast Station List Page

Search by: ID | Name | Date | Parm | Value | Avg | % Avg
Sort by: ID | Name | Date | Parm | Value | Avg | % Avg

Enter search or view all records.

Click on id for station plot
#IDNameDateParmValueAvg% Avg
0LEOI1KOOTENAI-AT LEONIA12-10-2018DISCHARGE (KAF)16781308128
1FCFM8NF FLATHEAD-NEAR COLUMBIA FALLS12-10-2018DISCHARGE (KAF)14717385
2WGCM8MF FLATHEAD-NEAR WEST GLACIER12-10-2018DISCHARGE (KAF)7415548
3CFMM8FLATHEAD-AT COLUMBIA FALLS12-10-2018DISCHARGE (KAF)881115276
4DLGM8CLARK FORK-AT DEER LODGE12-10-2018DISCHARGE (KAF)6362101
5DRMM8CLARK FORK-NR DRUMMOND12-10-2018DISCHARGE (KAF)153MM
6RCCM8ROCK CREEK-NEAR CLINTON12-10-2018DISCHARGE (KAF)5346114
7BONM8BLACKFOOT-NEAR BONNER12-10-2018DISCHARGE (KAF)13814496
8ABOM8CLARK FORK-ABOVE MISSOULA12-10-2018DISCHARGE (KAF)357356100
9BITM8BITTERROOT-NEAR MISSOULA12-10-2018DISCHARGE (KAF)21823593
10BELM8CLARK FORK-BELOW MISSOULA12-10-2018DISCHARGE (KAF)57359796
11STRM8ST. REGIS-NEAR ST. REGIS12-10-2018DISCHARGE (KAF)215936
12SRGM8CLARK FORK-AT ST REGIS12-10-2018DISCHARGE (KAF)73881091
13PRTI1PRIEST-NEAR PRIEST RIVER12-10-2018DISCHARGE (KAF)14423063
14SPOW1SPOKANE-AT SPOKANE12-10-2018DISCHARGE (KAF)967MM
15SATI1ST MARIES-NEAR SANTA12-10-2018DISCHARGE (KAF)327642
16CIBW1COLUMBIA-AT INTL BOUNDARY12-10-2018DISCHARGE (KAF)16279MM
17LAUW1KETTLE-AT LAURIER12-10-2018DISCHARGE (KAF)13115783
18TONW1OKANOGAN-NEAR TONASKET12-10-2018DISCHARGE (KAF)26129887
19PATW1METHOW-NEAR PATEROS12-10-2018DISCHARGE (KAF)8410679
20ARDW1ENTIAT-NEAR ARDENVOIR12-10-2018DISCHARGE (KAF)222491
21PESW1WENATCHEE-AT PESHASTIN12-10-2018DISCHARGE (KAF)29733389
22EASW1YAKIMA-AT EASTON12-10-2018DISCHARGE (KAF)9185107
23TNAW1TEANAWAY-BELOW FORKS12-10-2018DISCHARGE (KAF)666994
24UMTW1YAKIMA-AT UMTANUM12-10-2018DISCHARGE (KAF)33134696
25CLFW1NACHES-NEAR CLIFFDEL12-10-2018DISCHARGE (KAF)7113652
26NACW1NACHES-NEAR NACHES12-10-2018DISCHARGE (KAF)7312758
27PARW1YAKIMA-NEAR PARKER12-10-2018DISCHARGE (KAF)43458574
28KIOW1YAKIMA-AT KIONA12-10-2018DISCHARGE (KAF)61286771
29CHEI1FALL RIVER-NEAR CHESTER12-10-2018DISCHARGE (KAF)10410995
30ANTI1HENRYS FORK-AT ST. ANTHONY12-10-2018DISCHARGE (KAF)365347105
31TEAI1TETON-NEAR ST. ANTHONY12-10-2018DISCHARGE (KAF)859886
32REXI1HENRYS FORK-AT REXBURG12-10-2018DISCHARGE (KAF)42743299
33JKSW4SNAKE-NEAR JACKSON12-10-2018DISCHARGE (KAF)29630497
34ALPW4SNAKE-NEAR ALPINE12-10-2018DISCHARGE (KAF)34837593
35HEII1SNAKE-NEAR HEISE12-10-2018DISCHARGE (KAF)42357374
36SIFI1SNAKE-AB EAGLE ROCK NR IDAHO FALLS12-10-2018DISCHARGE (KAF)67882183
37SHYI1SNAKE-NEAR SHELLEY12-10-2018DISCHARGE (KAF)64983578
38SNAI1SNAKE-AT BLACKFOOT12-10-2018DISCHARGE (KAF)56876274
39BFTI1SNAKE-NEAR BLACKFOOT12-10-2018DISCHARGE (KAF)57181070
40PIHI1PORTNEUF-AT POCATELLO12-10-2018DISCHARGE (KAF)497763
41MILI1SNAKE-AT MILNER12-10-2018DISCHARGE (KAF)247473
42HOTI1BRUNEAU-NEAR HOT SPRINGS12-10-2018DISCHARGE (KAF)244455
43SWAI1SNAKE-BELOW SWAN FALLS12-10-2018DISCHARGE (KAF)1750269465
44HWRI1BIG LOST-AT HOWELL RANCH NEAR CHILLY12-10-2018DISCHARGE (KAF)2119111
45HALI1BIG WOOD-AT HAILEY12-10-2018DISCHARGE (KAF)303977
46BIGI1BOISE-AT GLENWOOD BRIDGE12-10-2018DISCHARGE (KAF)14855269
47PARI1BOISE-NEAR PARMA12-10-2018DISCHARGE (KAF)281232121
48VALO3MALHEUR-NEAR VALE12-10-2018DISCHARGE (KAF)194541
49EMMI1PAYETTE-NEAR EMMETT12-10-2018DISCHARGE (KAF)34647173
50WSRI1WEISER-NEAR WEISER12-10-2018DISCHARGE (KAF)21021299
51WEII1SNAKE-AT WEISER12-10-2018DISCHARGE (KAF)2847421768
52WHBI1SALMON-AT WHITEBIRD12-10-2018DISCHARGE (KAF)908112181
53TRYO3GRANDE RONDE-TROY12-10-2018DISCHARGE (KAF)31854958
54ANAW1SNAKE-NEAR ANATONE12-10-2018DISCHARGE (KAF)4415687764
55ORFI1CLEARWATER-AT OROFINO12-10-2018DISCHARGE (KAF)796107074
56SPDI1CLEARWATER-AT SPALDING12-10-2018DISCHARGE (KAF)1428228363
57TCHW1WALLA WALLA-NEAR TOUCHET12-10-2018DISCHARGE (KAF)18019991
58GIBO3UMATILLA-NEAR GIBBON12-10-2018DISCHARGE (KAF)5756102
59PDTO3UMATILLA-AT PENDLETON12-10-2018DISCHARGE (KAF)13914794
60MYKO3MCKAY CREEK-NEAR PILOT ROCK12-10-2018DISCHARGE (KAF)4634135
61UMAO3UMATILLA-NEAR UMATILLA12-10-2018DISCHARGE (KAF)14815198
62MONO3NF JOHN DAY-AT MONUMENT12-10-2018DISCHARGE (KAF)12427945
63SERO3JOHN DAY-AT SERVICE CK12-10-2018DISCHARGE (KAF)23544952
64MODO3DESCHUTES-AT MOODY NR BIGGS12-10-2018DISCHARGE (KAF)1423156891
65PITW1KLICKITAT-NEAR PITT12-10-2018DISCHARGE (KAF)423403105
66HODO3HOOD-NEAR TUCKER BRIDGE12-10-2018DISCHARGE (KAF)290277104
67UNDW1WHITE SALMON-NEAR UNDERWOOD12-10-2018DISCHARGE (KAF)30331297
68LYDM8KOOTENAI-LIBBY DAM12-10-2018INFLOW (KAF)72078592
69HHWM8SF FLATHEAD-HUNGRY HORSE DAM12-10-2018INFLOW (KAF)19025475
70KERM8FLATHEAD-KERR DAM12-10-2018INFLOW (KAF)1001152066
71NOXM8CLARK FORK-NOXON RAPIDS DAM12-10-2018INFLOW (KAF)2430374665
72CABI1CLARK FORK-CABINET GORGE DAM12-10-2018INFLOW (KAF)2688391369
73ALFW1PEND OREILLE-ALBENI FALLS DAM12-10-2018INFLOW (KAF)3099464467
74COEI1COEUR D ALENE-COEUR D ALENE LAKE12-10-2018INFLOW (KAF)1054126683
75LLKW1SPOKANE-AT LONGLAKE12-10-2018INFLOW (KAF)1339174977
76GCDW1COLUMBIA-GRAND COULEE DAM12-10-2018INFLOW (KAF)1783917023105
77CHJW1COLUMBIA-CHIEF JOSEPH DAM12-10-2018INFLOW (KAF)193522299484
78WELW1COLUMBIA-WELLS DAM12-10-2018INFLOW (KAF)197022339984
79CHDW1CHELAN-LAKE CHELAN DAM12-10-2018INFLOW (KAF)15317886
80RRHW1COLUMBIA-ROCKY REACH DAM12-10-2018INFLOW (KAF)201232396284
81WANW1COLUMBIA-WANAPUM DAM12-10-2018INFLOW (KAF)204252101797
82PRWW1COLUMBIA-PRIEST RAPIDS DAM12-10-2018INFLOW (KAF)204262129196
83KEDW1YAKIMA-KEECHELUS LAKE12-10-2018INFLOW (KAF)5251103
84KADW1KACHESS-KACHESS DAM12-10-2018INFLOW (KAF)485095
85CLUW1CLE ELUM-CLE ELUM LAKE12-10-2018INFLOW (KAF)10011091
86BUDW1BUMPING-BUMPING LAKE DAM12-10-2018INFLOW (KAF)193750
87RILW1TIETON-RIMROCK LAKE NEAR RIMROCK12-10-2018INFLOW (KAF)387551
88IPDI1HENRYS FORK-ISLAND PARK DAM12-10-2018INFLOW (KAF)7611168
89JLKW4SNAKE-JACKSON LAKE AT DAM12-10-2018INFLOW (KAF)10211887
90PLDI1SF SNAKE-PALISADES DAM12-10-2018INFLOW (KAF)54760590
91RIDI1WILLOW CREEK-RIRIE DAM12-10-2018INFLOW (KAF)111290
92AFRI1SNAKE-AMERICAN FALLS RESERVOIR12-10-2018INFLOW (KAF)1194153478
93MACI1BIG LOST-MACKAY RESERVOIR NEAR MACKAY12-10-2018INFLOW (KAF)375751
94MAGI1BIG WOOD-MAGIC DAM12-10-2018INFLOW (KAF)295256
95LWRI1LITTLE WOOD-LITTLE WOOD DAM12-10-2018INFLOW (KAF)91949
96OWYO3OWYHEE-OWYHEE DAM12-10-2018INFLOW (KAF)10519554
97ARAI1SF BOISE-ANDERSON RANCH DAM12-10-2018INFLOW (KAF)7210369
98LUCI1BOISE-LUCKY PEAK DAM12-10-2018INFLOW (KAF)231MM
99WRMO3MALHEUR-WARM SPRINGS DAM12-10-2018INFLOW (KAF)276046
100BERO3MALHEUR-AGENCY VALLEY DAM12-10-2018INFLOW (KAF)133240
101BULO3BULLY CREEK-BULLY CREEK DAM12-10-2018INFLOW (KAF)108122
102CSDI1NF PAYETTE-CASCADE DAM12-10-2018INFLOW (KAF)8011769
103DEDI1DEADWOOD-NEAR LOWMAN12-10-2018INFLOW (KAF)152072
104BRNI1SNAKE-BROWNLEE DAM12-10-2018INFLOW (KAF)3087443270
105DWRI1NF CLEARWATER-DWORSHAK DAM12-10-2018INFLOW (KAF)72584086
106LGDW1SNAKE-LOWER GRANITE DAM12-10-2018INFLOW (KAF)5843932263
107LGSW1SNAKE-LITTLE GOOSE DAM12-10-2018INFLOW (KAF)5843938362
108LMNW1SNAKE-LOWER MONUMENTAL DAM12-10-2018INFLOW (KAF)6377962766
109IHDW1SNAKE-ICE HARBOR DAM12-10-2018INFLOW (KAF)6377954667
110MCDW1COLUMBIA-MCNARY DAM12-10-2018INFLOW (KAF)275723298984
111JDAO3COLUMBIA-JOHN DAY DAM12-10-2018INFLOW (KAF)291223474384
112TDAO3COLUMBIA-THE DALLES DAM12-10-2018INFLOW (KAF)297173896976
113BONO3COLUMBIA-BONNEVILLE DAM12-10-2018INFLOW (KAF)307244150874
114HOPI1PEND OREILLE-PEND OREILLE LAKE NR HOPE12-10-2018LAKE ELEVATION (FT)MMM
115BFEI1KOOTENAI-AT BONNERS FERRY12-10-2018STAGE (FT)MMM
116SJMI1ST JOE-AT ST MARIES12-10-2018STAGE (FT)MMM